When you browse on this site, cookies collect data to enhance your experience and personalize the content and advertising you see.
Visit our Privacy Policy to learn more. By continuing to use the site, you agree to this use of cookies and data.
  • In Hungary
  • List of Countries
  • For 7 days
  • Water Temperature
  • Weather Map
  • News
  • Weather Widgets
  • user-avatar
    Login

    Hourly Weather Yaseniv

    Today, 28 May, Thursday

    Time Temperature Precipitation Wind Pressure Humidity
    00:00 +10°C° 0 mm 1 mps 742 mmHg 91%
    01:00 +10°C° 0 mm 1 mps 741 mmHg 92%
    02:00 +9°C° 0 mm 1 mps 741 mmHg 93%
    03:00 +9°C° 0 mm 1 mps 741 mmHg 93%
    04:00 +9°C° 0 mm 1 mps 741 mmHg 93%
    05:00 +9°C° 0 mm 1 mps 740 mmHg 93%
    06:00 +9°C° 0 mm 2 mps 740 mmHg 90%
    07:00 +12°C° 0 mm 2 mps 740 mmHg 87%
    08:00 +13°C° 0 mm 2 mps 740 mmHg 84%
    09:00 +14°C° 0.5 mm 3 mps 740 mmHg 79%
    10:00 +16°C° 0.5 mm 3 mps 740 mmHg 74%
    11:00 +17°C° 0.5 mm 4 mps 739 mmHg 70%
    12:00 +17°C° 0.4 mm 4 mps 739 mmHg 69%
    13:00 +18°C° 0.4 mm 4 mps 738 mmHg 69%
    14:00 +17°C° 0.4 mm 5 mps 738 mmHg 68%
    15:00 +18°C° 0.4 mm 4 mps 737 mmHg 70%
    16:00 +18°C° 0.4 mm 4 mps 737 mmHg 72%
    17:00 +17°C° 0.4 mm 4 mps 737 mmHg 74%
    18:00 +15°C° 0.4 mm 4 mps 737 mmHg 79%
    19:00 +14°C° 0.4 mm 4 mps 736 mmHg 83%
    20:00 +12°C° 0.4 mm 3 mps 736 mmHg 88%
    21:00 +12°C° 0 mm 3 mps 736 mmHg 90%
    22:00 +11°C° 0 mm 3 mps 736 mmHg 92%
    23:00 +10°C° 0 mm 3 mps 736 mmHg 94%

    Tomorrow, 29 May, Friday

    Time Temperature Precipitation Wind Pressure Humidity
    00:00 +10°C° 0.1 mm 3 mps 736 mmHg 95%
    01:00 +10°C° 0.1 mm 3 mps 736 mmHg 96%
    02:00 +9°C° 0.1 mm 3 mps 735 mmHg 97%
    03:00 +8°C° 0.2 mm 4 mps 735 mmHg 97%
    04:00 +10°C° 0.2 mm 4 mps 735 mmHg 97%
    05:00 +9°C° 0.2 mm 5 mps 735 mmHg 97%
    06:00 +9°C° 0.1 mm 5 mps 735 mmHg 96%
    07:00 +10°C° 0.1 mm 6 mps 735 mmHg 94%
    08:00 +10°C° 0.1 mm 6 mps 735 mmHg 93%
    09:00 +10°C° 0.1 mm 7 mps 735 mmHg 92%
    10:00 +11°C° 0.1 mm 7 mps 735 mmHg 91%
    11:00 +11°C° 0.1 mm 7 mps 735 mmHg 91%
    12:00 +11°C° 0.5 mm 7 mps 735 mmHg 90%
    13:00 +11°C° 0.5 mm 7 mps 735 mmHg 89%
    14:00 +11°C° 0.5 mm 7 mps 735 mmHg 89%
    15:00 +10°C° 0.2 mm 8 mps 735 mmHg 89%
    16:00 +9°C° 0.2 mm 8 mps 735 mmHg 90%
    17:00 +9°C° 0.2 mm 8 mps 734 mmHg 91%
    18:00 +8°C° 0.1 mm 7 mps 734 mmHg 92%
    19:00 +8°C° 0.1 mm 7 mps 734 mmHg 93%
    20:00 +8°C° 0.1 mm 6 mps 734 mmHg 93%
    21:00 +8°C° 0 mm 6 mps 734 mmHg 93%
    22:00 +8°C° 0 mm 6 mps 733 mmHg 93%
    23:00 +8°C° 0 mm 6 mps 733 mmHg 93%

    Day after tomorrow, 30 May, Saturday

    Time Temperature Precipitation Wind Pressure Humidity
    00:00 +8°C° 0 mm 6 mps 733 mmHg 93%
    01:00 +8°C° 0 mm 6 mps 733 mmHg 93%
    02:00 +8°C° 0 mm 6 mps 733 mmHg 93%
    03:00 +8°C° 0.1 mm 6 mps 732 mmHg 94%
    04:00 +8°C° 0.1 mm 7 mps 732 mmHg 94%
    05:00 +8°C° 0.1 mm 7 mps 732 mmHg 95%
    06:00 +8°C° 0.3 mm 7 mps 732 mmHg 95%
    07:00 +8°C° 0.3 mm 7 mps 732 mmHg 95%
    08:00 +8°C° 0.3 mm 7 mps 732 mmHg 96%
    09:00 +8°C° 0.4 mm 7 mps 732 mmHg 96%
    10:00 +8°C° 0.4 mm 7 mps 732 mmHg 96%
    11:00 +9°C° 0.4 mm 7 mps 732 mmHg 96%
    12:00 +9°C° 0.1 mm 7 mps 732 mmHg 95%
    13:00 +9°C° 0.1 mm 7 mps 732 mmHg 95%
    14:00 +9°C° 0.1 mm 8 mps 732 mmHg 94%
    15:00 +9°C° 0 mm 8 mps 732 mmHg 94%
    16:00 +9°C° 0 mm 8 mps 732 mmHg 93%
    17:00 +9°C° 0 mm 8 mps 731 mmHg 93%
    18:00 +9°C° 0.7 mm 8 mps 731 mmHg 94%
    19:00 +9°C° 0.7 mm 8 mps 730 mmHg 95%
    20:00 +7°C° 0.7 mm 8 mps 730 mmHg 96%
    21:00 +8°C° 2.1 mm 9 mps 729 mmHg 96%
    22:00 +8°C° 2.1 mm 9 mps 729 mmHg 97%
    23:00 +8°C° 2.1 mm 9 mps 728 mmHg 97%

    31 May, Sunday

    Time Temperature Precipitation Wind Pressure Humidity
    00:00 +8°C° 2.7 mm 9 mps 727 mmHg 97%
    01:00 +10°C° 2.7 mm 9 mps 727 mmHg 97%
    02:00 +10°C° 2.7 mm 9 mps 726 mmHg 97%
    03:00 +11°C° 1.5 mm 8 mps 726 mmHg 97%
    04:00 +11°C° 1.5 mm 7 mps 726 mmHg 97%
    05:00 +13°C° 1.5 mm 6 mps 726 mmHg 98%
    06:00 +13°C° 0.3 mm 6 mps 726 mmHg 96%
    07:00 +13°C° 0.3 mm 6 mps 726 mmHg 95%
    08:00 +13°C° 0.3 mm 6 mps 726 mmHg 94%
    09:00 +12°C° 0 mm 7 mps 727 mmHg 92%
    10:00 +12°C° 0 mm 7 mps 728 mmHg 90%
    11:00 +12°C° 0 mm 7 mps 728 mmHg 88%
    12:00 +12°C° 0.1 mm 7 mps 729 mmHg 87%
    13:00 +14°C° 0.1 mm 6 mps 729 mmHg 86%
    14:00 +14°C° 0.1 mm 6 mps 730 mmHg 85%
    15:00 +14°C° 0.1 mm 5 mps 730 mmHg 83%
    16:00 +15°C° 0.1 mm 5 mps 730 mmHg 82%
    17:00 +15°C° 0.1 mm 5 mps 731 mmHg 81%
    18:00 +14°C° 0 mm 4 mps 731 mmHg 84%
    19:00 +14°C° 0 mm 4 mps 731 mmHg 87%
    20:00 +13°C° 0 mm 3 mps 732 mmHg 90%
    21:00 +12°C° 0 mm 3 mps 732 mmHg 92%
    22:00 +11°C° 0 mm 3 mps 732 mmHg 94%
    23:00 +10°C° 0 mm 3 mps 733 mmHg 96%

    1 June, Monday

    Time Temperature Precipitation Wind Pressure Humidity
    00:00 +10°C° 0 mm 2 mps 733 mmHg 96%
    01:00 +10°C° 0 mm 2 mps 733 mmHg 96%
    02:00 +10°C° 0 mm 2 mps 733 mmHg 97%
    03:00 +10°C° 0.2 mm 2 mps 733 mmHg 97%
    04:00 +10°C° 0.2 mm 3 mps 733 mmHg 96%
    05:00 +11°C° 0.2 mm 3 mps 733 mmHg 96%
    06:00 +11°C° 0.8 mm 4 mps 733 mmHg 96%
    07:00 +10°C° 0.8 mm 5 mps 734 mmHg 96%
    08:00 +11°C° 0.8 mm 6 mps 734 mmHg 96%
    09:00 +11°C° 0.3 mm 6 mps 735 mmHg 95%
    10:00 +11°C° 0.3 mm 7 mps 735 mmHg 94%
    11:00 +11°C° 0.3 mm 7 mps 735 mmHg 94%
    12:00 +11°C° 0.1 mm 7 mps 735 mmHg 93%
    13:00 +13°C° 0.1 mm 6 mps 735 mmHg 91%
    14:00 +13°C° 0.1 mm 6 mps 735 mmHg 90%
    15:00 +14°C° 0.4 mm 6 mps 736 mmHg 89%
    16:00 +14°C° 0.4 mm 7 mps 736 mmHg 87%
    17:00 +15°C° 0.4 mm 7 mps 736 mmHg 86%
    18:00 +14°C° 0.1 mm 6 mps 736 mmHg 87%
    19:00 +13°C° 0.1 mm 5 mps 736 mmHg 88%
    20:00 +13°C° 0.1 mm 5 mps 736 mmHg 90%
    21:00 +12°C° 0 mm 4 mps 736 mmHg 91%
    22:00 +12°C° 0 mm 4 mps 736 mmHg 92%
    23:00 +11°C° 0 mm 4 mps 737 mmHg 93%

    2 June, Tuesday

    Time Temperature Precipitation Wind Pressure Humidity
    00:00 +11°C° 0 mm 4 mps 736 mmHg 93%
    01:00 +11°C° 0 mm 4 mps 736 mmHg 93%
    02:00 +11°C° 0 mm 4 mps 736 mmHg 93%
    03:00 +10°C° 0 mm 4 mps 736 mmHg 93%
    04:00 +10°C° 0 mm 4 mps 736 mmHg 94%
    05:00 +10°C° 0 mm 4 mps 736 mmHg 95%
    06:00 +11°C° 0 mm 4 mps 737 mmHg 92%
    07:00 +12°C° 0 mm 4 mps 737 mmHg 89%
    08:00 +13°C° 0 mm 5 mps 737 mmHg 86%
    09:00 +14°C° 0.1 mm 5 mps 738 mmHg 82%
    10:00 +16°C° 0.1 mm 5 mps 738 mmHg 77%
    11:00 +17°C° 0.1 mm 6 mps 738 mmHg 72%
    12:00 +17°C° 0.1 mm 6 mps 738 mmHg 71%
    13:00 +17°C° 0.1 mm 6 mps 737 mmHg 70%
    14:00 +17°C° 0.1 mm 5 mps 737 mmHg 69%
    15:00 +17°C° 0.2 mm 5 mps 737 mmHg 71%
    16:00 +17°C° 0.2 mm 5 mps 737 mmHg 73%
    17:00 +17°C° 0.2 mm 5 mps 737 mmHg 75%
    18:00 +15°C° 0 mm 5 mps 737 mmHg 79%
    19:00 +14°C° 0 mm 4 mps 737 mmHg 83%
    20:00 +13°C° 0 mm 3 mps 737 mmHg 87%
    21:00 +11°C° 0 mm 3 mps 737 mmHg 89%
    22:00 +10°C° 0 mm 3 mps 738 mmHg 90%
    23:00 +9°C° 0 mm 3 mps 738 mmHg 91%
    Show more